Regional Weather Roundup
Issued by NWS

Home | Current Version | Previous Version | Text Only | Print | Product List | Glossary On
Versions: 1 2 3 4 5 6 7 8 9 10 11 12 13 14 15 16 17 18 19 20 21 22 23 24 25 26 27 28 29 30 31 32 33 34 35 36 37 38 39 40 41 42 43 44 45 46 47 48 49 50
000
ASUS43 KMPX 241701
RWRMN
WEATHER ROUNDUP FOR MINNESOTA
NATIONAL WEATHER SERVICE TWIN CITIES/CHANHASSEN MN
1200 PM CDT FRI OCT 24 2014


NOTE: "FAIR" INDICATES FEW OR NO CLOUDS BELOW 12,000 FEET WITH NO
SIGNIFICANT WEATHER AND/OR OBSTRUCTIONS TO VISIBILITY. N/A MEANS
CURRENT SKY AND/OR WEATHER CONDITIONS ARE NOT AVAILABLE.

MNZ060>063-068>070-241800-
   Twin Cities Metro

CITY           SKY/WX    TMP DP  RH WIND       PRES   REMARKS
TWIN CITIES    PTSUNNY   60  51  72 S6        29.87F
ST PAUL        MOSUNNY   60  52  74 S9        29.88F
CRYSTAL        PTSUNNY   62  50  64 S7        29.85F
BLAINE         MOSUNNY   61  54  77 S10       29.86F
LAKEVILLE      CLOUDY    59  54  82 S7        29.86F
EDEN PRAIRIE   MOSUNNY   63  52  67 VRB6      29.85F
SOUTH ST PAUL  PTSUNNY   60  51  72 SE8       29.87S
LAKE ELMO      FAIR      61  54  77 S14       29.88F
$$
MNZ001>005-007-008-013>017-022>024-027-028-241800-
   Northwest Minnesota

CITY           SKY/WX    TMP DP  RH WIND       PRES   REMARKS
BEMIDJI        MOSUNNY   66  38  36 W12       29.78S
HALLOCK          N/A     63  43  48 S9        29.70F
ROSEAU         CLOUDY    59  45  58 SW8       29.72S
WARROAD        CLOUDY    57  45  62 SW9       29.71F
THIEF RVR FALL MOSUNNY   61  43  51 SW13      29.77S
CROOKSTON      MOSUNNY   61  45  55 SW10      29.78S
FOSSTON        SUNNY     61  43  51 S12       29.79F
DETROIT LAKES  SUNNY     61  41  48 W5        29.83S
MOORHEAD       SUNNY     61  45  55 SW7       29.82F
PARK RAPIDS    SUNNY     64  40  41 SW8       29.81F
$$
MNZ006-009>011-018-025>026-241800-
   North Central Minnesota

CITY           SKY/WX    TMP DP  RH WIND       PRES   REMARKS
BAUDETTE       PTSUNNY   62  40  44 SW10      29.72S
FLAG ISLAND    CLOUDY    52  45  76 S7        29.67F
INTL FALLS     MOSUNNY   63  42  46 SW9G18    29.73F
WASKISH        PTSUNNY   61  43  51 SW7       29.76S
BIG FORK       PTSUNNY   63  45  51 S12       29.78F
LONGVILLE      SUNNY     61  46  59 S6        29.82R
GRAND RAPIDS   MOSUNNY   59  46  63 SW3       29.81F
CRANE LAKE     PTSUNNY   61  45  55 S7        29.76F
ORR            MOSUNNY   63  41  45 S10       29.74F
COOK           MOSUNNY   61  46  59 SW6       29.78F
WALKER         FAIR      62  43  49 SW9       29.80F
$$
MNZ012-019>021-037-241800-
   Northeast Minnesota

CITY           SKY/WX    TMP DP  RH WIND       PRES   REMARKS
DULUTH         MOSUNNY   61  47  59 SW13      29.83F
ELY            SUNNY     63  46  55 SW14G20   29.78F
HIBBING        MOSUNNY   61  46  57 VRB6      29.80F
EVELETH        SUNNY     59  46  63 SW9       29.81F
DULUTH HARBOR  SUNNY     57  52  82 CALM      29.83F
TWO HARBORS    SUNNY     61  41  48 SW14      29.82F
SILVER BAY     SUNNY     61  48  63 S8        29.81F
GRAND MARAIS     N/A     48  47  96 SW5       29.84F
G MARAIS ARPRT PTSUNNY   48  46  93 S8        29.83F
$$
MNZ029>031-032-039>041-046>048-054>057-064-241800-
   West Central Minnesota

CITY           SKY/WX    TMP DP  RH WIND       PRES   REMARKS
FERGUS FALLS   MOSUNNY   61  43  51 W8        29.86R
WHEATON        PTSUNNY   63  45  51 SW6       29.86S
MORRIS         PTSUNNY   64  52  63 CALM      29.84S
ALEXANDRIA     MOSUNNY   61  49  64 W6        29.86S
ELBOW LAKE     FAIR      59  48  67 W7        29.85S
WADENA         SUNNY     63  45  51 W8        29.83F
GLENWOOD       MOSUNNY   57  48  72 W6        29.86R
APPLETON       PTSUNNY   63  48  59 W3        29.85S
BENSON         PTSUNNY   61  50  67 CALM      29.85F
ORTONVILLE     PTSUNNY   63  48  59 W3        29.86R
MADISON        PTSUNNY   66  52  59 W3        29.86S
WILLMAR        FAIR      61  48  63 W6        29.87S
$$
MNZ033>034-036-042>043-049>051-058-059-241800-
   Central Minnesota

CITY           SKY/WX    TMP DP  RH WIND       PRES   REMARKS
ST CLOUD       MOSUNNY   61  48  62 SW5       29.85F
SAUK CENTRE    FAIR      58  48  68 W3        29.85S
PAYNESVILLE    MOSUNNY   56  47  70 CALM      29.86S
AITKIN         SUNNY     63  48  59 S6        29.81F
PINE RIVER     SUNNY    N/A N/A N/A SW8       29.86R
BRAINERD       SUNNY     60  46  59 SW7       29.84S
STAPLES        SUNNY     61  46  59 SW3       29.83S
LONG PRAIRIE   FAIR      57  46  67 W5        29.85S
LITTLE FALLS   SUNNY     57  45  62 SW3       29.85R
LITCHFIELD     PTSUNNY   61  52  72 CALM      29.86S
BUFFALO        MOSUNNY   60  49  65 S6        29.87S
MAPLE LAKE     MOSUNNY   61  52  71 SW5       29.87S
$$
MNZ037-044-045-052-053-241800-
   East Central Minnesota

CITY           SKY/WX    TMP DP  RH WIND       PRES   REMARKS
PRINCETON      MOSUNNY   63  52  67 S7        29.85F
MORA           SUNNY     59  48  67 S7        29.86F
CAMBRIDGE      MOSUNNY   63  50  63 S7        29.83F
RUSH CITY      SUNNY     60  51  72 S9        29.86F
MOOSE LAKE     SUNNY     59  46  63 SW8       29.82F
HINCKLEY       FAIR      59  52  77 S10       29.85F
CLOQUET        SUNNY     61  46  59 S8        29.83F
MCGREGOR       SUNNY     61  48  63 S9        29.83F
$$
MNZ071>073-080-081-089-090-097-098-241800-
   Southwest Minnesota

CITY           SKY/WX    TMP DP  RH WIND       PRES   REMARKS
MONTEVIDEO     PTSUNNY   63  54  72 NW8       29.87R
GRANITE FALLS  PTSUNNY   60  51  71 W7        29.88S
CANBY          PTSUNNY   66  47  49 NW6       29.88S
MARSHALL       PTSUNNY   64  48  55 W8        29.87S
REDWOOD FALLS  PTSUNNY   61  51  70 NW6       29.86S
OLIVIA         PTSUNNY   59  50  72 CALM      29.85S
PIPESTONE      PTSUNNY   59  52  77 CALM      29.89S
WINDOM         CLOUDY    64  54  68 W7        29.88F
WORTHINGTON    CLOUDY    61  52  72 W6        29.90F
JACKSON        CLOUDY    61  52  72 W8        29.89S
TRACY          PTSUNNY   66  51  59 NW7       29.88S
SLAYTON        CLOUDY    61  51  70 CALM      29.90S
$$
MNZ065>067-074>077-082>085-091>093-241800-
   South Central Minnesota

CITY           SKY/WX    TMP DP  RH WIND       PRES   REMARKS
MANKATO        CLOUDY    63  50  63 W9        29.87S
NEW ULM        PTSUNNY   61  52  72 W3        29.87S
ST JAMES       PTSUNNY   63  54  72 SW7       29.89R
FAIRMONT       CLOUDY    63  39  42 SW10      29.89R
GLENCOE        MOSUNNY   62  53  73 SW5       29.85S
FARIBAULT      PTSUNNY   59  54  82 S8        29.89R
OWATONNA       MOSUNNY   57  54  88 S8G16     29.89R FOG
WASECA         CLOUDY    57  50  77 S13       29.90S
ALBERT LEA     FOG       54  54 100 S6        29.90S VSB 1/4
$$
MNZ078>079-086>088-094>096-241800-
   Southeast Minnesota

CITY           SKY/WX    TMP DP  RH WIND       PRES   REMARKS
ROCHESTER      CLOUDY    58  55  90 S12       29.92F
RED WING       CLOUDY    57  52  82 SE8       29.88F
STANTON        CLOUDY    60  54  78 S13       29.87S
DODGE CENTER   CLOUDY    55  54  94 S16       29.90S FOG
WINONA         MOSUNNY   59  52  77 SE10      29.92F
AUSTIN         FOG       54  52  94 S13       29.92S VSB 1
PRESTON        CLOUDY    59  55  87 S10G18    29.92F
$$
ABBREVIATIONS USED IN REMARKS
   TC - TEMPERATURES IN CELSIUS
  WCI - WIND CHILL INDEX
   HX - HEAT INDEX
  VSB - VISIBILITY
$$



USA.gov is the U.S. government's official web portal to all federal, state and local government web resources and services.